Torna al catalogo

STARLINK-35997

AttivoComunicazioniVLEO
NORAD 66843·PAYLOAD·🇺🇸 United States

Lanciato Dec 2, 2025 da Vandenberg Space Force Base

Loading…

Prossimi Passaggi (prossime 24 ore)

TLE

AggiornatoSource: CelesTrak SupGP

Epoca: Sep 15, 2026, 02:40 UTC

1 66843C 25280Y   26258.11159722 -.00019032  00000+0 -15955-2 0  2586
2 66843  70.0008 216.7898 0003097 267.9351 356.6763 14.98326849    18

Traccia STARLINK-35997 in tempo reale con AllMySat

Download on the App Store